SWA8817 KPBI-KSDF

Flight info

Callsign SWA8817
Flight time N/A
Altitude 34000
Route TBIRD7 SHRKS Q77 TEUFL/N0464F330 Q77 WIGVO/N0463F340 GLAZR LEDDL1
Aircraft B737/M-SDE2E3FGHIRWXY/LB1

Departure

Time 2026-04-17 16:57
Airport Palm Beach International Airport (KPBI)

Arrival

Time N/A
Airport Louisville Muhammad Ali International Airport (KSDF)
Time Latitude Longitude Altitude Speed Heading
2026-04-17 16:42 26.68522 -80.08934 21 ft 0 kts
2026-04-17 16:49 26.68502 -80.08934 22 ft 4 kts 356°
2026-04-17 16:50 26.68476 -80.08930 23 ft 4 kts 341°
2026-04-17 16:50 26.68453 -80.08917 24 ft 4 kts 313°
2026-04-17 16:50 26.68442 -80.08896 23 ft 1 kts 272°
2026-04-17 16:50 26.68442 -80.08895 23 ft 0 kts 272°
2026-04-17 16:52 26.68442 -80.08899 23 ft 2 kts 272°
2026-04-17 16:53 26.68444 -80.08954 21 ft 10 kts 273°
2026-04-17 16:53 26.68448 -80.09038 21 ft 12 kts 273°
2026-04-17 16:53 26.68402 -80.09100 21 ft 13 kts 185°
2026-04-17 16:53 26.68359 -80.09176 21 ft 15 kts 273°
2026-04-17 16:54 26.68366 -80.09311 21 ft 19 kts 273°
2026-04-17 16:54 26.68372 -80.09468 21 ft 22 kts 272°
2026-04-17 16:54 26.68381 -80.09647 21 ft 24 kts 273°
2026-04-17 16:54 26.68389 -80.09846 21 ft 27 kts 272°
2026-04-17 16:55 26.68399 -80.10060 21 ft 29 kts 272°
2026-04-17 16:55 26.68408 -80.10290 22 ft 30 kts 272°
2026-04-17 16:55 26.68419 -80.10524 20 ft 26 kts 272°
2026-04-17 16:55 26.68424 -80.10645 20 ft 10 kts 272°
2026-04-17 16:56 26.68423 -80.10719 20 ft 10 kts 253°
2026-04-17 16:56 26.68366 -80.10743 20 ft 9 kts 176°
2026-04-17 16:56 26.68317 -80.10704 22 ft 9 kts 110°
2026-04-17 16:56 26.68309 -80.10545 20 ft 47 kts 93°
2026-04-17 16:57 26.68282 -80.09937 21 ft 108 kts 93°
2026-04-17 16:57 26.68238 -80.08909 32 ft 154 kts 94°
2026-04-17 16:57 26.68188 -80.07668 478 ft 159 kts 90°
2026-04-17 16:57 26.68148 -80.06421 1103 ft 164 kts 90°
2026-04-17 16:58 26.68229 -80.05162 1835 ft 165 kts 71°
2026-04-17 16:58 26.68769 -80.03950 2181 ft 190 kts 62°
2026-04-17 16:58 26.69431 -80.02565 2408 ft 213 kts 63°
2026-04-17 16:58 26.70156 -80.01015 2652 ft 237 kts 63°
2026-04-17 16:59 26.70971 -79.99309 3006 ft 256 kts 58°
2026-04-17 16:59 26.72241 -79.97928 3750 ft 258 kts 34°
2026-04-17 16:59 26.73917 -79.97111 4358 ft 270 kts 13°
2026-04-17 16:59 26.75772 -79.96781 5180 ft 271 kts
2026-04-17 17:00 26.77663 -79.96961 5881 ft 280 kts 340°
2026-04-17 17:00 26.79307 -79.98071 6665 ft 284 kts 317°
2026-04-17 17:00 26.80659 -79.99698 7441 ft 287 kts 310°
2026-04-17 17:00 26.81951 -80.01440 8128 ft 295 kts 309°
2026-04-17 17:01 26.83244 -80.03222 9017 ft 293 kts 309°
2026-04-17 17:01 26.84532 -80.04992 10014 ft 296 kts 310°
2026-04-17 17:01 26.85866 -80.06815 10580 ft 312 kts 309°
2026-04-17 17:01 26.87308 -80.08772 10751 ft 339 kts 310°
2026-04-17 17:02 26.88864 -80.10876 10931 ft 362 kts 310°
2026-04-17 17:02 26.90509 -80.13094 11251 ft 377 kts 310°
2026-04-17 17:02 26.92173 -80.15334 11887 ft 381 kts 310°
2026-04-17 17:02 26.93864 -80.17609 12722 ft 379 kts 310°
2026-04-17 17:03 26.95560 -80.19890 13417 ft 382 kts 310°
2026-04-17 17:03 26.97273 -80.22194 14067 ft 387 kts 309°
2026-04-17 17:03 26.99002 -80.24519 14695 ft 387 kts 309°
2026-04-17 17:03 27.00720 -80.26831 15494 ft 387 kts 309°
2026-04-17 17:04 27.02447 -80.29157 16178 ft 388 kts 309°
2026-04-17 17:04 27.04183 -80.31496 16735 ft 393 kts 309°
2026-04-17 17:04 27.05919 -80.33836 17226 ft 398 kts 309°
2026-04-17 17:04 27.07694 -80.36230 17767 ft 402 kts 309°
2026-04-17 17:05 27.09490 -80.38655 18254 ft 407 kts 309°
2026-04-17 17:05 27.11302 -80.41102 18802 ft 407 kts 309°
2026-04-17 17:05 27.13118 -80.43550 19295 ft 409 kts 310°
2026-04-17 17:05 27.15153 -80.45798 19750 ft 413 kts 320°
2026-04-17 17:06 27.17500 -80.47669 20222 ft 416 kts 328°
2026-04-17 17:06 27.20096 -80.49122 20689 ft 419 kts 336°
2026-04-17 17:06 27.22812 -80.50342 21150 ft 421 kts 337°
2026-04-17 17:06 27.25513 -80.51525 21599 ft 423 kts 337°
2026-04-17 17:07 27.28257 -80.52755 22036 ft 426 kts 336°
2026-04-17 17:07 27.31005 -80.54013 22469 ft 428 kts 336°
2026-04-17 17:07 27.33745 -80.55324 22924 ft 428 kts 335°
2026-04-17 17:07 27.36464 -80.56706 23350 ft 430 kts 334°
2026-04-17 17:08 27.39189 -80.58117 23732 ft 432 kts 334°
2026-04-17 17:08 27.41927 -80.59532 24063 ft 434 kts 334°
2026-04-17 17:08 27.44681 -80.60942 24424 ft 435 kts 334°
2026-04-17 17:08 27.47441 -80.62348 24775 ft 436 kts 334°
2026-04-17 17:09 27.50160 -80.63751 25094 ft 437 kts 332°
2026-04-17 17:09 27.52781 -80.65484 25403 ft 437 kts 324°
2026-04-17 17:09 27.55134 -80.67634 25740 ft 436 kts 318°
2026-04-17 17:09 27.57404 -80.69914 26079 ft 437 kts 317°
2026-04-17 17:10 27.59671 -80.72204 26390 ft 438 kts 317°
2026-04-17 17:10 27.61949 -80.74498 26686 ft 440 kts 317°
2026-04-17 17:10 27.64239 -80.76788 26972 ft 441 kts 317°
2026-04-17 17:10 27.66539 -80.79077 27263 ft 442 kts 317°
2026-04-17 17:11 27.68852 -80.81373 27530 ft 443 kts 317°
2026-04-17 17:11 27.71170 -80.83673 27789 ft 445 kts 317°
2026-04-17 17:11 27.73465 -80.85950 28068 ft 445 kts 317°
2026-04-17 17:11 27.75785 -80.88255 28449 ft 444 kts 317°
2026-04-17 17:12 27.78095 -80.90551 28943 ft 440 kts 317°
2026-04-17 17:12 27.80377 -80.92821 29509 ft 435 kts 317°
2026-04-17 17:12 27.82641 -80.95062 30045 ft 431 kts 319°
2026-04-17 17:12 27.85004 -80.97135 30464 ft 430 kts 322°
2026-04-17 17:13 27.87440 -80.99097 30789 ft 430 kts 323°
2026-04-17 17:13 27.89894 -81.01025 31144 ft 429 kts 323°
2026-04-17 17:13 27.92340 -81.02950 31539 ft 428 kts 323°
2026-04-17 17:13 27.94769 -81.04882 31970 ft 425 kts 322°
2026-04-17 17:14 27.97144 -81.06788 32373 ft 424 kts 322°
2026-04-17 17:14 27.99542 -81.08725 32765 ft 423 kts 322°
2026-04-17 17:14 28.01929 -81.10658 33158 ft 421 kts 322°
2026-04-17 17:15 28.06676 -81.14505 33970 ft 418 kts 322°
2026-04-17 17:15 28.09029 -81.16447 34146 ft 420 kts 317°
2026-04-17 17:15 28.10956 -81.18897 34165 ft 417 kts 302°
2026-04-17 17:15 28.12271 -81.21820 34148 ft 416 kts 291°
2026-04-17 17:16 28.13050 -81.24923 34139 ft 417 kts 280°
2026-04-17 17:16 28.13033 -81.31496 34152 ft 419 kts 270°
2026-04-17 17:17 28.12589 -81.38071 34161 ft 418 kts 269°
2026-04-17 17:17 28.12164 -81.44630 34150 ft 417 kts 270°
2026-04-17 17:18 28.11781 -81.51183 34151 ft 417 kts 270°
2026-04-17 17:18 28.11897 -81.57637 34161 ft 410 kts 289°
2026-04-17 17:18 28.13074 -81.60551 34152 ft 409 kts 302°
2026-04-17 17:19 28.14841 -81.63072 34164 ft 410 kts 314°
2026-04-17 17:19 28.17076 -81.65095 34146 ft 415 kts 326°
2026-04-17 17:19 28.19677 -81.66553 34139 ft 421 kts 336°
2026-04-17 17:19 28.22568 -81.67255 34154 ft 430 kts 349°
2026-04-17 17:20 28.25564 -81.67463 34150 ft 433 kts 352°
2026-04-17 17:20 28.31616 -81.67622 34153 ft 436 kts 353°
2026-04-17 17:21 28.37648 -81.67758 34146 ft 437 kts 353°
2026-04-17 17:21 28.43732 -81.67951 34160 ft 437 kts 352°
2026-04-17 17:22 28.49817 -81.68179 34155 ft 437 kts 352°
2026-04-17 17:22 28.55898 -81.68416 34149 ft 437 kts 352°
2026-04-17 17:23 28.61927 -81.68652 34153 ft 436 kts 352°
2026-04-17 17:23 28.67993 -81.68889 34161 ft 435 kts 352°
2026-04-17 17:24 28.74045 -81.69125 34160 ft 435 kts 352°
2026-04-17 17:24 28.80047 -81.69359 34166 ft 434 kts 352°